Location: Gälforsberget
(66.6500°N, 22.4167°E)
Time: 15:13:38
(UTC+00:00)

Cosmos 1378 Rocket - Pass Details

Date: 11 April 2026
Orbit: 594 x 619 km, 82.5° (Epoch: 17 May)

Event Time Altitude Azimuth Distance (km) Brightness Sun altitude
Rises 19:51:50 0° 342° (NNW) 2,915 8.5 -9.5°
Reaches altitude 10° 19:54:07 10° 337° (NNW) 2,004 7.6 -9.6°
Maximum altitude 19:58:26 53° 262° (W) 771 4.3 -9.9°
Drops below altitude 10° 20:02:42 10° 186° (S) 1,985 5.7 -10.1°
Enters shadow 20:03:26 - 184° (S) 2,274 6.0 -10.2°
